Regional Weather Roundup
Issued by NWS

Home | Current Version | Previous Version | Graphics & Text | Print | Product List | Glossary On
Versions: 1 2 3 4 5 6 7 8 9 10 11 12 13 14 15 16 17 18 19 20 21 22 23 24 25 26 27 28
000
ASUS45 KBOI 270710
RWRID

IDAHO REGIONAL WEATHER ROUNDUP
NATIONAL WEATHER SERVICE BOISE ID
100 AM MDT MON MAR 27 2017

NOTE: "FAIR" INDICATES FEW OR NO CLOUDS BELOW 12000 FEET
WITH NO SIGNIFICANT WEATHER AND/OR OBSTRUCTIONS TO VISIBILITY

IDZ012-014-270800-
SOUTHWEST IDAHO


CITY           SKY/WX    TMP DP  RH WIND       PRES   REMARKS
BOISE          LGT RAIN  45  39  79 SW10      29.89R
CALDWELL       RAIN      44  41  89 S7        29.91R
MOUNTAIN HOME  LGT RAIN  44  44 100 E10       29.87S
$$

IDZ016-017-270800-
SOUTHCENTRAL IDAHO


CITY           SKY/WX    TMP DP  RH WIND       PRES   REMARKS
BURLEY         CLOUDY    43  37  79 SE3       29.89S
JEROME         MOCLDY    41  37  86 NE10      29.89F
TWIN FALLS     CLOUDY    40  36  86 SE3       29.89F
$$

IDZ019>023-270800-
SOUTHEAST IDAHO


CITY           SKY/WX    TMP DP  RH WIND       PRES   REMARKS
IDAHO FALLS    LGT RAIN  41  38  89 SE6       29.91F
POCATELLO      CLOUDY    41  39  93 S5        29.92F
REXBURG        LGT RAIN  38  36  92 S7        29.91F WCI  33
$$

IDZ006-010-011-018-031-032-270800-
CENTRAL IDAHO MOUNTAINS


CITY           SKY/WX    TMP DP  RH WIND       PRES   REMARKS
MCCALL         LGT SNOW  34  31  88 CALM      29.83S FOG
HAILEY         CLOUDY    36  34  93 CALM      29.92F
STANLEY          N/A     35  24  64 S9        29.86F WCI  28
SALMON         CLOUDY    43  32  65 W3        29.83S
CHALLIS        CLOUDY    42  26  53 S9        29.85S
$$

IDZ002-004-006-007-026-270800-
NORTHERN IDAHO


CITY           SKY/WX    TMP DP  RH WIND       PRES   REMARKS
LEWISTON       CLOUDY    45  42  89 VRB3      29.83S
LOWELL           N/A     42  39  89 N3        29.88R
COEUR D`ALENE  LGT RAIN  41  40  96 S6        29.82S
MULLAN PASS    SNOW      30  30 100 VRB3      29.77S VSB 1/4
$$




USA.gov is the U.S. government's official web portal to all federal, state and local government web resources and services.